MAS195 VABB-WMKK

Flight info

Callsign MAS195
Flight time 4h 34m
Altitude 39000
Route VEVAK2A AGELA N571 BIKEN/N0482F410 N571 GUNIP M630 NIREN NIREN3J
Aircraft B772/H-SDE2E3FGHIJ5LORVWXY/LB1D1

Departure

Time 2026-05-07 13:08
Airport Chhatrapati Shivaji Maharaj International Airport (VABB)

Arrival

Time 2026-05-07 17:43
Airport Kuala Lumpur International Airport (WMKK)
Time Latitude Longitude Altitude Speed Heading
2026-05-07 12:57 19.09307 72.87213 50 ft 0 kts 337°
2026-05-07 13:02 19.09291 72.87220 48 ft 4 kts 337°
2026-05-07 13:02 19.09270 72.87228 46 ft 4 kts 357°
2026-05-07 13:02 19.09248 72.87222 46 ft 4 kts 54°
2026-05-07 13:03 19.09238 72.87196 46 ft 4 kts 81°
2026-05-07 13:03 19.09236 72.87176 46 ft 0 kts 89°
2026-05-07 13:05 19.09236 72.87185 46 ft 7 kts 89°
2026-05-07 13:05 19.09191 72.87256 54 ft 18 kts 159°
2026-05-07 13:05 19.09070 72.87273 50 ft 16 kts 148°
2026-05-07 13:05 19.09050 72.87385 50 ft 19 kts 86°
2026-05-07 13:06 19.09052 72.87503 49 ft 16 kts 89°
2026-05-07 13:06 19.09054 72.87617 48 ft 16 kts 89°
2026-05-07 13:06 19.09056 72.87732 48 ft 16 kts 89°
2026-05-07 13:06 19.09059 72.87845 50 ft 16 kts 89°
2026-05-07 13:07 19.09059 72.87958 53 ft 16 kts 90°
2026-05-07 13:07 19.09032 72.88041 47 ft 12 kts 146°
2026-05-07 13:07 19.08976 72.88053 48 ft 12 kts 180°
2026-05-07 13:07 19.08888 72.87958 50 ft 27 kts 264°
2026-05-07 13:08 19.08883 72.87574 47 ft 87 kts 269°
2026-05-07 13:08 19.08870 72.86691 49 ft 152 kts 269°
2026-05-07 13:08 19.08845 72.85385 217 ft 191 kts 271°
2026-05-07 13:08 19.08831 72.84478 806 ft 183 kts 273°
2026-05-07 13:09 19.08811 72.83166 1863 ft 171 kts 271°
2026-05-07 13:09 19.08796 72.81847 2219 ft 190 kts 272°
2026-05-07 13:09 19.08778 72.80394 2511 ft 205 kts 270°
2026-05-07 13:09 19.08391 72.78874 2536 ft 238 kts 237°
2026-05-07 13:10 19.07043 72.77778 2802 ft 259 kts 201°
2026-05-07 13:10 19.05211 72.77484 3140 ft 271 kts 184°
2026-05-07 13:10 19.03283 72.77374 3647 ft 282 kts 184°
2026-05-07 13:10 19.01310 72.77254 4328 ft 285 kts 185°
2026-05-07 13:11 18.99332 72.77071 5102 ft 284 kts 187°
2026-05-07 13:11 18.97375 72.77056 5685 ft 286 kts 167°
2026-05-07 13:11 18.95615 72.78047 6271 ft 291 kts 136°
2026-05-07 13:11 18.94240 72.79602 6828 ft 292 kts 132°
2026-05-07 13:12 18.92869 72.81205 7455 ft 294 kts 132°
2026-05-07 13:12 18.91501 72.82814 8123 ft 295 kts 132°
2026-05-07 13:12 18.90129 72.84430 8769 ft 297 kts 133°
2026-05-07 13:12 18.88762 72.86038 9410 ft 298 kts 133°
2026-05-07 13:13 18.87367 72.87676 9995 ft 302 kts 133°
2026-05-07 13:13 18.85914 72.89379 10213 ft 322 kts 133°
2026-05-07 13:13 18.84355 72.91199 10384 ft 345 kts 133°
2026-05-07 13:13 18.82695 72.93138 10567 ft 367 kts 133°
2026-05-07 13:14 18.80952 72.95171 11105 ft 378 kts 133°
2026-05-07 13:14 18.79173 72.97245 11860 ft 383 kts 133°
2026-05-07 13:14 18.77384 72.99330 12857 ft 383 kts 132°
2026-05-07 13:14 18.75596 73.01412 13870 ft 382 kts 132°
2026-05-07 13:15 18.73806 73.03496 14682 ft 386 kts 132°
2026-05-07 13:15 18.71979 73.05621 15389 ft 394 kts 132°
2026-05-07 13:15 18.70125 73.07776 16143 ft 400 kts 132°
2026-05-07 13:15 18.68240 73.09968 16955 ft 405 kts 133°
2026-05-07 13:16 18.66337 73.12178 17754 ft 410 kts 133°
2026-05-07 13:16 18.64405 73.14420 18435 ft 417 kts 133°
2026-05-07 13:16 18.62433 73.16708 18982 ft 426 kts 132°
2026-05-07 13:16 18.60415 73.19049 19503 ft 436 kts 132°
2026-05-07 13:17 18.58386 73.21403 20049 ft 444 kts 132°
2026-05-07 13:17 18.56293 73.23829 20682 ft 450 kts 132°
2026-05-07 13:17 18.54150 73.26314 21357 ft 455 kts 131°
2026-05-07 13:17 18.52005 73.28799 21957 ft 462 kts 131°
2026-05-07 13:18 18.49852 73.31293 22482 ft 469 kts 131°
2026-05-07 13:18 18.47638 73.33856 23003 ft 476 kts 131°
2026-05-07 13:18 18.45395 73.36451 23514 ft 482 kts 131°
2026-05-07 13:18 18.43123 73.39079 23965 ft 486 kts 131°
2026-05-07 13:19 18.40840 73.41719 24474 ft 489 kts 131°
2026-05-07 13:19 18.38543 73.44370 24994 ft 491 kts 131°
2026-05-07 13:19 18.36236 73.47033 25468 ft 494 kts 131°
2026-05-07 13:19 18.33917 73.49710 25900 ft 497 kts 131°
2026-05-07 13:20 18.31573 73.52416 26320 ft 501 kts 131°
2026-05-07 13:20 18.29217 73.55135 26759 ft 504 kts 132°
2026-05-07 13:20 18.26878 73.57831 27186 ft 506 kts 132°
2026-05-07 13:20 18.24506 73.60565 27622 ft 509 kts 132°
2026-05-07 13:21 18.22107 73.63328 28044 ft 511 kts 132°
2026-05-07 13:21 18.19705 73.66094 28433 ft 514 kts 132°
2026-05-07 13:21 18.17287 73.68877 28800 ft 516 kts 132°
2026-05-07 13:21 18.14848 73.71683 29139 ft 519 kts 132°
2026-05-07 13:22 18.12410 73.74486 29449 ft 522 kts 132°
2026-05-07 13:22 18.09946 73.77318 29764 ft 524 kts 132°
2026-05-07 13:22 18.07482 73.80149 30026 ft 527 kts 132°
2026-05-07 13:22 18.05002 73.82996 30273 ft 528 kts 132°
2026-05-07 13:23 18.02523 73.85842 30533 ft 529 kts 132°
2026-05-07 13:23 18.00065 73.88662 30788 ft 530 kts 132°
2026-05-07 13:23 17.97578 73.91515 31090 ft 529 kts 133°
2026-05-07 13:23 17.95097 73.94358 31435 ft 527 kts 133°
2026-05-07 13:24 17.92621 73.97195 31796 ft 525 kts 133°
2026-05-07 13:24 17.90157 74.00017 32143 ft 523 kts 133°
2026-05-07 13:24 17.87705 74.02824 32472 ft 522 kts 133°
2026-05-07 13:24 17.85253 74.05630 32799 ft 521 kts 133°
2026-05-07 13:25 17.82807 74.08428 33138 ft 519 kts 133°
2026-05-07 13:25 17.80368 74.11217 33461 ft 518 kts 133°
2026-05-07 13:25 17.77936 74.13996 33805 ft 517 kts 133°
2026-05-07 13:25 17.75513 74.16764 34075 ft 515 kts 133°
2026-05-07 13:26 17.73084 74.19537 34338 ft 514 kts 133°
2026-05-07 13:26 17.70664 74.22299 34628 ft 513 kts 133°
2026-05-07 13:26 17.68249 74.25054 34899 ft 512 kts 133°
2026-05-07 13:26 17.65840 74.27801 35176 ft 511 kts 133°
2026-05-07 13:27 17.63435 74.30543 35432 ft 510 kts 133°
2026-05-07 13:27 17.61037 74.33276 35735 ft 509 kts 133°
2026-05-07 13:27 17.58646 74.35999 36018 ft 507 kts 133°
2026-05-07 13:27 17.56289 74.38681 36277 ft 506 kts 133°
2026-05-07 13:28 17.53901 74.41399 36569 ft 505 kts 134°
2026-05-07 13:28 17.51521 74.44106 36850 ft 504 kts 134°
2026-05-07 13:28 17.49143 74.46809 37123 ft 504 kts 134°
2026-05-07 13:28 17.46773 74.49504 37381 ft 503 kts 134°
2026-05-07 13:29 17.44399 74.52201 37650 ft 502 kts 134°
2026-05-07 13:29 17.42032 74.54889 37906 ft 502 kts 134°
2026-05-07 13:29 17.39665 74.57575 38150 ft 502 kts 134°
2026-05-07 13:29 17.37292 74.60268 38406 ft 501 kts 134°
2026-05-07 13:30 17.34930 74.62947 38650 ft 500 kts 134°
2026-05-07 13:30 17.32570 74.65622 38807 ft 501 kts 134°
2026-05-07 13:30 17.27854 74.70966 38891 ft 503 kts 134°
2026-05-07 13:31 17.23122 74.76323 38891 ft 498 kts 134°
2026-05-07 13:31 17.18423 74.81640 38895 ft 496 kts 134°
2026-05-07 13:32 17.13737 74.86936 38896 ft 495 kts 134°
2026-05-07 13:32 17.09055 74.92223 38896 ft 495 kts 134°
2026-05-07 13:33 17.04369 74.97512 38888 ft 496 kts 134°
2026-05-07 13:33 16.99680 75.02799 38890 ft 497 kts 134°
2026-05-07 13:34 16.92624 75.10747 38881 ft 497 kts 134°
2026-05-07 13:35 16.87945 75.16014 38880 ft 497 kts 134°
2026-05-07 13:35 16.83239 75.21306 38876 ft 497 kts 134°
2026-05-07 13:36 16.78532 75.26595 38877 ft 497 kts 134°
2026-05-07 13:36 16.73822 75.31885 38874 ft 496 kts 134°
2026-05-07 13:37 16.69123 75.37158 38871 ft 496 kts 134°
2026-05-07 13:37 16.64429 75.42420 38868 ft 495 kts 134°
2026-05-07 13:38 16.60199 75.48071 38869 ft 496 kts 123°
2026-05-07 13:38 16.56946 75.54423 38870 ft 496 kts 116°
2026-05-07 13:39 16.53997 75.60934 38862 ft 497 kts 116°
2026-05-07 13:39 16.51026 75.67430 38861 ft 497 kts 116°
2026-05-07 13:40 16.48031 75.73884 38857 ft 497 kts 117°
2026-05-07 13:40 16.45007 75.80370 38858 ft 498 kts 117°
2026-05-07 13:41 16.41981 75.86861 38849 ft 498 kts 117°
2026-05-07 13:41 16.38950 75.93362 38850 ft 498 kts 117°
2026-05-07 13:42 16.35944 75.99802 38847 ft 497 kts 117°
2026-05-07 13:42 16.32889 76.06310 38849 ft 497 kts 117°
2026-05-07 13:43 16.29856 76.12740 38842 ft 497 kts 117°
2026-05-07 13:43 16.26810 76.19196 38840 ft 497 kts 117°
2026-05-07 13:44 16.23763 76.25654 38833 ft 496 kts 117°
2026-05-07 13:44 16.20718 76.32105 38834 ft 496 kts 117°
2026-05-07 13:45 16.17671 76.38551 38829 ft 496 kts 117°
2026-05-07 13:45 16.14623 76.44996 38833 ft 496 kts 117°
2026-05-07 13:46 16.11575 76.51433 38825 ft 496 kts 117°
2026-05-07 13:46 16.08527 76.57864 38826 ft 496 kts 117°
2026-05-07 13:47 16.05495 76.64255 38823 ft 496 kts 117°
2026-05-07 13:47 16.02441 76.70687 38818 ft 496 kts 117°
2026-05-07 13:48 15.99384 76.77119 38820 ft 496 kts 117°
2026-05-07 13:48 15.96331 76.83538 38816 ft 496 kts 117°
2026-05-07 13:49 15.93272 76.89962 38811 ft 496 kts 117°
2026-05-07 13:49 15.90214 76.96379 38809 ft 496 kts 117°
2026-05-07 13:50 15.87151 77.02801 38809 ft 496 kts 117°
2026-05-07 13:50 15.84089 77.09212 38804 ft 495 kts 117°
2026-05-07 13:51 15.81026 77.15622 38805 ft 495 kts 117°
2026-05-07 13:51 15.77968 77.22018 38803 ft 495 kts 117°
2026-05-07 13:52 15.74897 77.28433 38802 ft 495 kts 117°
2026-05-07 13:52 15.71849 77.34796 38816 ft 495 kts 117°
2026-05-07 13:53 15.68791 77.41196 38799 ft 495 kts 117°
2026-05-07 13:53 15.65737 77.47606 38805 ft 494 kts 117°
2026-05-07 13:54 15.62692 77.53993 38818 ft 494 kts 117°
2026-05-07 13:54 15.59660 77.60341 38804 ft 494 kts 117°
2026-05-07 13:55 15.56609 77.66724 38806 ft 493 kts 117°
2026-05-07 13:55 15.53561 77.73093 38823 ft 493 kts 117°
2026-05-07 13:56 15.51028 77.78383 38813 ft 493 kts 117°
2026-05-07 13:56 15.47976 77.84751 38819 ft 492 kts 117°
2026-05-07 13:57 15.44926 77.91110 38830 ft 492 kts 117°
2026-05-07 13:57 15.41883 77.97448 38829 ft 491 kts 117°
2026-05-07 13:58 15.38837 78.03789 38815 ft 491 kts 117°
2026-05-07 13:58 15.35812 78.10080 38811 ft 490 kts 117°
2026-05-07 13:59 15.32726 78.16426 38805 ft 490 kts 118°
2026-05-07 13:59 15.29664 78.22675 38805 ft 489 kts 118°
2026-05-07 14:00 15.26579 78.28970 38804 ft 489 kts 118°
2026-05-07 14:00 15.23504 78.35251 38792 ft 488 kts 118°
2026-05-07 14:01 15.20430 78.41527 38793 ft 488 kts 118°
2026-05-07 14:01 15.17360 78.47791 38791 ft 487 kts 118°
2026-05-07 14:02 15.14288 78.54054 38799 ft 487 kts 118°
2026-05-07 14:02 15.11241 78.60260 38795 ft 487 kts 118°
2026-05-07 14:03 15.08170 78.66508 38797 ft 486 kts 118°
2026-05-07 14:03 15.05108 78.72733 38804 ft 485 kts 118°
2026-05-07 14:04 15.02048 78.78952 38799 ft 485 kts 118°
2026-05-07 14:04 14.98980 78.85178 38802 ft 484 kts 118°
2026-05-07 14:05 14.95918 78.91385 38797 ft 484 kts 118°
2026-05-07 14:05 14.92876 78.97550 38799 ft 484 kts 118°
2026-05-07 14:06 14.89817 79.03744 38799 ft 483 kts 118°
2026-05-07 14:06 14.86758 79.09932 38799 ft 483 kts 118°
2026-05-07 14:07 14.83700 79.16114 38800 ft 483 kts 118°
2026-05-07 14:07 14.80633 79.22307 38795 ft 483 kts 118°
2026-05-07 14:08 14.77586 79.28453 38798 ft 483 kts 118°
2026-05-07 14:08 14.74521 79.34633 38803 ft 482 kts 118°
2026-05-07 14:09 14.71464 79.40795 38800 ft 482 kts 118°
2026-05-07 14:09 14.68396 79.46972 38803 ft 482 kts 118°
2026-05-07 14:10 14.65334 79.53130 38808 ft 482 kts 118°
2026-05-07 14:10 14.62266 79.59296 38808 ft 482 kts 118°
2026-05-07 14:11 14.59203 79.65446 38806 ft 482 kts 118°
2026-05-07 14:11 14.56152 79.71567 38809 ft 482 kts 118°
2026-05-07 14:12 14.53086 79.77715 38809 ft 481 kts 118°
2026-05-07 14:12 14.50022 79.83854 38807 ft 481 kts 118°
2026-05-07 14:13 14.46957 79.89990 38803 ft 481 kts 118°
2026-05-07 14:13 14.43888 79.96127 38807 ft 480 kts 118°
2026-05-07 14:14 14.40823 80.02252 38805 ft 480 kts 118°
2026-05-07 14:14 14.37756 80.08378 38804 ft 480 kts 118°
2026-05-07 14:15 14.34709 80.14458 38807 ft 479 kts 118°
2026-05-07 14:15 14.31649 80.20560 38805 ft 479 kts 118°
2026-05-07 14:16 14.28590 80.26655 38804 ft 479 kts 118°
2026-05-07 14:16 14.25530 80.32747 38812 ft 478 kts 118°
2026-05-07 14:17 14.22466 80.38843 38808 ft 478 kts 118°
2026-05-07 14:17 14.19402 80.44933 38807 ft 478 kts 118°
2026-05-07 14:18 14.16336 80.51022 38809 ft 478 kts 118°
2026-05-07 14:18 14.13268 80.57111 38812 ft 478 kts 118°
2026-05-07 14:19 14.10200 80.63197 38811 ft 478 kts 118°
2026-05-07 14:19 14.07150 80.69242 38814 ft 478 kts 118°
2026-05-07 14:20 14.04078 80.75325 38812 ft 478 kts 118°
2026-05-07 14:20 14.01011 80.81395 38812 ft 478 kts 118°
2026-05-07 14:21 13.97977 80.87490 38813 ft 477 kts 118°
2026-05-07 14:21 13.95042 80.93564 38818 ft 477 kts 117°
2026-05-07 14:22 13.92084 80.99688 38815 ft 477 kts 117°
2026-05-07 14:22 13.89118 81.05797 38819 ft 477 kts 117°
2026-05-07 14:23 13.86152 81.11891 38819 ft 477 kts 117°
2026-05-07 14:23 13.83174 81.18003 38820 ft 477 kts 117°
2026-05-07 14:24 13.80216 81.24070 38818 ft 477 kts 117°
2026-05-07 14:24 13.77242 81.30168 38819 ft 477 kts 117°
2026-05-07 14:25 13.74262 81.36273 38817 ft 477 kts 117°
2026-05-07 14:25 13.71282 81.42375 38823 ft 477 kts 117°
2026-05-07 14:26 13.68304 81.48469 38824 ft 476 kts 117°
2026-05-07 14:26 13.65330 81.54558 38821 ft 476 kts 117°
2026-05-07 14:27 13.62359 81.60642 38823 ft 476 kts 117°
2026-05-07 14:27 13.59392 81.66715 38823 ft 475 kts 117°
2026-05-07 14:28 13.56425 81.72782 38824 ft 475 kts 117°
2026-05-07 14:28 13.53455 81.78852 38825 ft 475 kts 117°
2026-05-07 14:29 13.50504 81.84876 38825 ft 475 kts 117°
2026-05-07 14:29 13.47532 81.90938 38825 ft 475 kts 117°
2026-05-07 14:30 13.44556 81.97006 38824 ft 475 kts 117°
2026-05-07 14:30 13.41578 82.03072 38828 ft 475 kts 117°
2026-05-07 14:31 13.38603 82.09128 38828 ft 475 kts 117°
2026-05-07 14:31 13.35621 82.15196 38829 ft 476 kts 117°
2026-05-07 14:32 13.32632 82.21270 38829 ft 476 kts 117°
2026-05-07 14:32 13.29636 82.27355 38830 ft 477 kts 118°
2026-05-07 14:33 13.26655 82.33404 38833 ft 478 kts 118°
2026-05-07 14:33 13.23651 82.39499 38827 ft 479 kts 118°
2026-05-07 14:34 13.20638 82.45606 38830 ft 479 kts 118°
2026-05-07 14:34 13.17620 82.51716 38831 ft 480 kts 118°
2026-05-07 14:35 13.14608 82.57813 38830 ft 479 kts 118°
2026-05-07 14:35 13.11591 82.63915 38834 ft 479 kts 117°
2026-05-07 14:36 13.08580 82.70001 38830 ft 478 kts 117°
2026-05-07 14:36 13.05589 82.76041 38833 ft 477 kts 117°
2026-05-07 14:37 13.02585 82.82103 38832 ft 476 kts 117°
2026-05-07 14:37 12.98083 82.91178 38835 ft 476 kts 117°
2026-05-07 14:38 12.95073 82.97242 38833 ft 476 kts 117°
2026-05-07 14:38 12.92062 83.03305 38836 ft 477 kts 117°
2026-05-07 14:39 12.89067 83.09329 38835 ft 477 kts 117°
2026-05-07 14:39 12.86049 83.15396 38835 ft 478 kts 117°
2026-05-07 14:40 12.83029 83.21463 38835 ft 478 kts 117°
2026-05-07 14:40 12.80003 83.27537 38838 ft 478 kts 117°
2026-05-07 14:41 12.76976 83.33609 38837 ft 478 kts 117°
2026-05-07 14:41 12.73950 83.39677 38835 ft 478 kts 117°
2026-05-07 14:42 12.70923 83.45742 38837 ft 478 kts 117°
2026-05-07 14:42 12.68409 83.50778 38836 ft 477 kts 117°
2026-05-07 14:43 12.65380 83.56848 38835 ft 477 kts 117°
2026-05-07 14:43 12.62451 83.62902 38841 ft 477 kts 116°
2026-05-07 14:44 12.59539 83.68999 38838 ft 477 kts 116°
2026-05-07 14:44 12.56619 83.75098 38839 ft 477 kts 116°
2026-05-07 14:45 12.53690 83.81189 38837 ft 477 kts 116°
2026-05-07 14:45 12.50759 83.87273 38842 ft 476 kts 116°
2026-05-07 14:46 12.47828 83.93350 38841 ft 476 kts 116°
2026-05-07 14:46 12.44895 83.99428 38840 ft 476 kts 116°
2026-05-07 14:47 12.41961 84.05507 38843 ft 476 kts 116°
2026-05-07 14:47 12.39050 84.11532 38841 ft 475 kts 116°
2026-05-07 14:48 12.36119 84.17596 38844 ft 475 kts 116°
2026-05-07 14:48 12.33182 84.23667 38841 ft 475 kts 116°
2026-05-07 14:49 12.30249 84.29726 38843 ft 475 kts 116°
2026-05-07 14:49 12.27311 84.35789 38845 ft 475 kts 116°
2026-05-07 14:50 12.24375 84.41847 38847 ft 475 kts 116°
2026-05-07 14:50 12.21434 84.47911 38848 ft 475 kts 116°
2026-05-07 14:51 12.18496 84.53962 38847 ft 475 kts 116°
2026-05-07 14:51 12.15573 84.59981 38848 ft 475 kts 116°
2026-05-07 14:52 12.12635 84.66025 38844 ft 475 kts 116°
2026-05-07 14:52 12.09696 84.72068 38847 ft 474 kts 116°
2026-05-07 14:53 12.06760 84.78101 38851 ft 474 kts 116°
2026-05-07 14:53 12.03827 84.84122 38847 ft 473 kts 116°
2026-05-07 14:54 12.00893 84.90144 38848 ft 473 kts 116°
2026-05-07 14:54 11.97977 84.96124 38853 ft 473 kts 116°
2026-05-07 14:55 11.95041 85.02140 38852 ft 473 kts 116°
2026-05-07 14:55 11.92105 85.08154 38854 ft 473 kts 116°
2026-05-07 14:56 11.89168 85.14164 38851 ft 473 kts 116°
2026-05-07 14:56 11.86227 85.20179 38853 ft 473 kts 116°
2026-05-07 14:57 11.83284 85.26196 38852 ft 473 kts 116°
2026-05-07 14:57 11.80836 85.31196 38853 ft 473 kts 116°
2026-05-07 14:58 11.77409 85.38191 38851 ft 473 kts 116°
2026-05-07 14:58 11.74469 85.44190 38854 ft 473 kts 116°
2026-05-07 14:59 11.71522 85.50197 38851 ft 473 kts 116°
2026-05-07 14:59 11.68582 85.56188 38855 ft 472 kts 116°
2026-05-07 15:00 11.65639 85.62181 38840 ft 472 kts 116°
2026-05-07 15:00 11.62700 85.68161 38859 ft 471 kts 116°
2026-05-07 15:01 11.59765 85.74129 38861 ft 470 kts 116°
2026-05-07 15:01 11.56829 85.80096 38855 ft 470 kts 116°
2026-05-07 15:02 11.53894 85.86057 38855 ft 470 kts 116°
2026-05-07 15:02 11.50960 85.92014 38858 ft 470 kts 116°
2026-05-07 15:03 11.48026 85.97965 38859 ft 470 kts 116°
2026-05-07 15:03 11.45080 86.03936 38859 ft 471 kts 116°
2026-05-07 15:04 11.42141 86.09891 38858 ft 471 kts 116°
2026-05-07 15:04 11.39207 86.15832 38857 ft 471 kts 116°
2026-05-07 15:05 11.36262 86.21792 38857 ft 471 kts 116°
2026-05-07 15:05 11.33315 86.27751 38870 ft 472 kts 116°
2026-05-07 15:06 11.31834 86.30745 39025 ft 472 kts 116°
2026-05-07 15:06 11.30358 86.33728 39295 ft 470 kts 116°
2026-05-07 15:06 11.28886 86.36700 39583 ft 468 kts 116°
2026-05-07 15:06 11.27427 86.39648 39865 ft 466 kts 116°
2026-05-07 15:07 11.25967 86.42595 40100 ft 465 kts 116°
2026-05-07 15:07 11.24513 86.45529 40292 ft 465 kts 116°
2026-05-07 15:07 11.23053 86.48475 40480 ft 465 kts 116°
2026-05-07 15:07 11.21593 86.51421 40688 ft 464 kts 116°
2026-05-07 15:08 11.18680 86.57293 40825 ft 465 kts 116°
2026-05-07 15:08 11.15776 86.63145 40854 ft 464 kts 116°
2026-05-07 15:09 11.12866 86.69005 40858 ft 462 kts 116°
2026-05-07 15:09 11.09964 86.74846 40859 ft 461 kts 116°
2026-05-07 15:10 11.07065 86.80676 40860 ft 461 kts 116°
2026-05-07 15:10 11.04169 86.86498 40861 ft 461 kts 116°
2026-05-07 15:11 11.01267 86.92329 40860 ft 461 kts 116°
2026-05-07 15:11 10.98366 86.98155 40861 ft 462 kts 116°
2026-05-07 15:12 10.95459 87.03987 40862 ft 462 kts 116°
2026-05-07 15:12 10.92550 87.09821 40861 ft 462 kts 116°
2026-05-07 15:13 10.89654 87.15627 40858 ft 463 kts 116°
2026-05-07 15:13 10.86741 87.21462 40860 ft 463 kts 116°
2026-05-07 15:14 10.83823 87.27304 40860 ft 463 kts 116°
2026-05-07 15:14 10.80898 87.33158 40859 ft 463 kts 116°
2026-05-07 15:15 10.77981 87.38993 40864 ft 463 kts 116°
2026-05-07 15:15 10.75057 87.44836 40864 ft 463 kts 116°
2026-05-07 15:16 10.72131 87.50681 40861 ft 463 kts 116°
2026-05-07 15:16 10.69205 87.56523 40863 ft 463 kts 116°
2026-05-07 15:17 10.66278 87.62363 40861 ft 464 kts 116°
2026-05-07 15:17 10.63351 87.68200 40864 ft 464 kts 116°
2026-05-07 15:18 10.60437 87.74008 40861 ft 464 kts 116°
2026-05-07 15:18 10.57496 87.79867 40865 ft 465 kts 116°
2026-05-07 15:19 10.54555 87.85722 40864 ft 465 kts 116°
2026-05-07 15:19 10.51606 87.91590 40863 ft 466 kts 116°
2026-05-07 15:20 10.48655 87.97460 40863 ft 466 kts 116°
2026-05-07 15:20 10.45701 88.03330 40863 ft 466 kts 116°
2026-05-07 15:21 10.42768 88.09156 40864 ft 466 kts 116°
2026-05-07 15:21 10.39814 88.15023 40866 ft 466 kts 116°
2026-05-07 15:22 10.36858 88.20888 40869 ft 466 kts 116°
2026-05-07 15:22 10.33901 88.26752 40869 ft 466 kts 116°
2026-05-07 15:23 10.30945 88.32612 40869 ft 466 kts 116°
2026-05-07 15:23 10.27991 88.38465 40868 ft 465 kts 116°
2026-05-07 15:24 10.25039 88.44310 40870 ft 465 kts 116°
2026-05-07 15:24 10.22089 88.50151 40870 ft 465 kts 116°
2026-05-07 15:25 10.19182 88.56009 40869 ft 464 kts 115°
2026-05-07 15:25 10.16462 88.61957 40870 ft 464 kts 114°
2026-05-07 15:26 10.13796 88.67882 40869 ft 464 kts 114°
2026-05-07 15:26 10.11093 88.73829 40870 ft 464 kts 114°
2026-05-07 15:27 10.08374 88.79763 40871 ft 464 kts 114°
2026-05-07 15:27 10.05654 88.85684 40871 ft 463 kts 114°
2026-05-07 15:28 10.02926 88.91620 40870 ft 463 kts 114°
2026-05-07 15:28 10.00660 88.96549 40872 ft 463 kts 114°
2026-05-07 15:29 9.97488 89.03445 40874 ft 463 kts 114°
2026-05-07 15:29 9.95205 89.08406 40875 ft 463 kts 114°
2026-05-07 15:30 9.92489 89.14305 40872 ft 464 kts 114°
2026-05-07 15:30 9.89757 89.20237 40871 ft 464 kts 114°
2026-05-07 15:31 9.87028 89.26159 40869 ft 464 kts 114°
2026-05-07 15:31 9.84291 89.32094 40873 ft 464 kts 114°
2026-05-07 15:32 9.81555 89.38022 40874 ft 464 kts 114°
2026-05-07 15:32 9.78812 89.43965 40876 ft 464 kts 114°
2026-05-07 15:33 9.76093 89.49851 40875 ft 465 kts 114°
2026-05-07 15:33 9.73351 89.55785 40877 ft 465 kts 114°
2026-05-07 15:34 9.70604 89.61725 40876 ft 465 kts 114°
2026-05-07 15:34 9.67858 89.67662 40877 ft 465 kts 114°
2026-05-07 15:35 9.65104 89.73611 40876 ft 465 kts 114°
2026-05-07 15:35 9.62354 89.79549 40877 ft 465 kts 114°
2026-05-07 15:36 9.59601 89.85490 40882 ft 465 kts 114°
2026-05-07 15:36 9.56858 89.91406 40880 ft 465 kts 114°
2026-05-07 15:37 9.54096 89.97360 40878 ft 465 kts 114°
2026-05-07 15:37 9.51342 90.03296 40878 ft 465 kts 114°
2026-05-07 15:38 9.48604 90.09192 40880 ft 465 kts 114°
2026-05-07 15:38 9.45849 90.15122 40879 ft 465 kts 114°
2026-05-07 15:39 9.43093 90.21050 40882 ft 465 kts 114°
2026-05-07 15:39 9.40334 90.26983 40883 ft 465 kts 114°
2026-05-07 15:40 9.37576 90.32909 40881 ft 465 kts 114°
2026-05-07 15:40 9.34819 90.38830 40884 ft 465 kts 114°
2026-05-07 15:41 9.32059 90.44756 40879 ft 465 kts 114°
2026-05-07 15:41 9.29303 90.50671 40879 ft 465 kts 114°
2026-05-07 15:42 9.26557 90.56558 40881 ft 465 kts 114°
2026-05-07 15:42 9.23795 90.62480 40879 ft 465 kts 114°
2026-05-07 15:43 9.21036 90.68392 40880 ft 465 kts 114°
2026-05-07 15:43 9.18272 90.74310 40881 ft 465 kts 114°
2026-05-07 15:44 9.15511 90.80219 40883 ft 464 kts 114°
2026-05-07 15:44 9.12745 90.86136 40881 ft 464 kts 114°
2026-05-07 15:45 9.09983 90.92043 40880 ft 464 kts 114°
2026-05-07 15:45 9.07221 90.97945 40881 ft 464 kts 114°
2026-05-07 15:46 9.03078 91.06794 40882 ft 464 kts 114°
2026-05-07 15:47 9.00314 91.12692 40883 ft 464 kts 114°
2026-05-07 15:47 8.97548 91.18595 40881 ft 464 kts 114°
2026-05-07 15:48 8.94783 91.24490 40883 ft 464 kts 114°
2026-05-07 15:48 8.92015 91.30391 40883 ft 464 kts 114°
2026-05-07 15:49 8.89250 91.36281 40881 ft 464 kts 114°
2026-05-07 15:49 8.86503 91.42129 40882 ft 464 kts 114°
2026-05-07 15:50 8.83730 91.48031 40883 ft 464 kts 115°
2026-05-07 15:50 8.80963 91.53918 40882 ft 464 kts 115°
2026-05-07 15:51 8.78193 91.59808 40883 ft 464 kts 115°
2026-05-07 15:51 8.75419 91.65702 40880 ft 464 kts 115°
2026-05-07 15:52 8.72645 91.71595 40884 ft 464 kts 115°
2026-05-07 15:52 8.69871 91.77485 40878 ft 464 kts 115°
2026-05-07 15:53 8.67091 91.83386 40882 ft 464 kts 115°
2026-05-07 15:53 8.64315 91.89275 40882 ft 464 kts 115°
2026-05-07 15:54 8.61539 91.95163 40883 ft 464 kts 115°
2026-05-07 15:54 8.58766 92.01061 40881 ft 464 kts 114°
2026-05-07 15:55 8.56111 92.07006 40882 ft 464 kts 113°
2026-05-07 15:55 8.53496 92.12975 40883 ft 464 kts 113°
2026-05-07 15:56 8.50888 92.18898 40881 ft 464 kts 113°
2026-05-07 15:56 8.48251 92.24853 40882 ft 464 kts 113°
2026-05-07 15:57 8.45608 92.30808 40880 ft 465 kts 114°
2026-05-07 15:57 8.42962 92.36767 40883 ft 465 kts 114°
2026-05-07 15:58 8.40316 92.42724 40884 ft 465 kts 114°
2026-05-07 15:58 8.37668 92.48682 40882 ft 465 kts 114°
2026-05-07 15:59 8.35017 92.54645 40881 ft 465 kts 114°
2026-05-07 15:59 8.32359 92.60623 40883 ft 466 kts 114°
2026-05-07 16:00 8.29722 92.66550 40885 ft 466 kts 114°
2026-05-07 16:00 8.27062 92.72524 40880 ft 466 kts 114°
2026-05-07 16:01 8.24405 92.78491 40885 ft 466 kts 114°
2026-05-07 16:01 8.21740 92.84472 40882 ft 467 kts 114°
2026-05-07 16:02 8.19072 92.90456 40880 ft 467 kts 114°
2026-05-07 16:02 8.16405 92.96437 40884 ft 467 kts 114°
2026-05-07 16:03 8.13735 93.02420 40881 ft 467 kts 114°
2026-05-07 16:03 8.11063 93.08407 40881 ft 468 kts 114°
2026-05-07 16:04 8.08408 93.14352 40882 ft 468 kts 114°
2026-05-07 16:04 8.05735 93.20335 40883 ft 468 kts 114°
2026-05-07 16:05 8.03060 93.26319 40884 ft 467 kts 114°
2026-05-07 16:05 8.00386 93.32299 40879 ft 467 kts 114°
2026-05-07 16:06 7.97713 93.38274 40883 ft 467 kts 114°
2026-05-07 16:06 7.95034 93.44261 40882 ft 467 kts 114°
2026-05-07 16:07 7.92375 93.50199 40884 ft 467 kts 114°
2026-05-07 16:07 7.89703 93.56211 40885 ft 467 kts 113°
2026-05-07 16:08 7.87070 93.62157 40882 ft 466 kts 113°
2026-05-07 16:08 7.84423 93.68132 40882 ft 466 kts 113°
2026-05-07 16:09 7.81770 93.74113 40884 ft 466 kts 113°
2026-05-07 16:09 7.79568 93.79071 40885 ft 466 kts 113°
2026-05-07 16:10 7.76470 93.86046 40885 ft 466 kts 113°
2026-05-07 16:10 7.74268 93.91002 40886 ft 466 kts 113°
2026-05-07 16:11 7.71171 93.97970 40882 ft 466 kts 113°
2026-05-07 16:11 7.68537 94.03893 40887 ft 466 kts 113°
2026-05-07 16:12 7.65883 94.09857 40886 ft 465 kts 113°
2026-05-07 16:12 7.63232 94.15814 40885 ft 465 kts 113°
2026-05-07 16:13 7.60581 94.21768 40884 ft 465 kts 113°
2026-05-07 16:13 7.57929 94.27721 40885 ft 465 kts 113°
2026-05-07 16:14 7.55722 94.32674 40886 ft 465 kts 113°
2026-05-07 16:14 7.53068 94.38630 40887 ft 465 kts 113°
2026-05-07 16:15 7.50380 94.44557 40887 ft 465 kts 115°
2026-05-07 16:15 7.47526 94.50413 40887 ft 465 kts 115°
2026-05-07 16:16 7.44642 94.56256 40883 ft 466 kts 115°
2026-05-07 16:16 7.41776 94.62111 40883 ft 466 kts 115°
2026-05-07 16:17 7.38921 94.67974 40886 ft 465 kts 115°
2026-05-07 16:17 7.36093 94.73790 40887 ft 465 kts 115°
2026-05-07 16:18 7.33244 94.79646 40886 ft 465 kts 115°
2026-05-07 16:18 7.30391 94.85505 40883 ft 465 kts 115°
2026-05-07 16:19 7.27543 94.91352 40887 ft 465 kts 115°
2026-05-07 16:19 7.24692 94.97203 40887 ft 465 kts 115°
2026-05-07 16:20 7.21834 95.03063 40886 ft 465 kts 115°
2026-05-07 16:20 7.18984 95.08908 40886 ft 465 kts 115°
2026-05-07 16:21 7.16133 95.14751 40885 ft 465 kts 115°
2026-05-07 16:21 7.13283 95.20591 40885 ft 465 kts 115°
2026-05-07 16:22 7.10450 95.26393 40882 ft 465 kts 115°
2026-05-07 16:22 7.07596 95.32235 40880 ft 465 kts 115°
2026-05-07 16:23 7.04739 95.38083 40881 ft 465 kts 115°
2026-05-07 16:23 7.01882 95.43926 40883 ft 465 kts 115°
2026-05-07 16:24 6.99023 95.49774 40883 ft 465 kts 115°
2026-05-07 16:24 6.96164 95.55618 40880 ft 466 kts 115°
2026-05-07 16:25 6.93299 95.61473 40881 ft 466 kts 115°
2026-05-07 16:25 6.90434 95.67325 40882 ft 466 kts 115°
2026-05-07 16:26 6.87570 95.73174 40883 ft 466 kts 115°
2026-05-07 16:26 6.84705 95.79022 40882 ft 466 kts 116°
2026-05-07 16:27 6.81857 95.84834 40879 ft 466 kts 116°
2026-05-07 16:27 6.78990 95.90684 40878 ft 466 kts 116°
2026-05-07 16:28 6.76113 95.96552 40877 ft 466 kts 116°
2026-05-07 16:28 6.73245 96.02407 40881 ft 466 kts 116°
2026-05-07 16:29 6.70381 96.08268 40879 ft 466 kts 116°
2026-05-07 16:29 6.67518 96.14125 40881 ft 467 kts 116°
2026-05-07 16:30 6.64669 96.19951 40876 ft 467 kts 116°
2026-05-07 16:30 6.61802 96.25811 40885 ft 467 kts 116°
2026-05-07 16:31 6.58934 96.31671 40883 ft 467 kts 116°
2026-05-07 16:31 6.56065 96.37533 40883 ft 467 kts 116°
2026-05-07 16:32 6.53194 96.43395 40882 ft 467 kts 116°
2026-05-07 16:32 6.50411 96.49299 40887 ft 467 kts 111°
2026-05-07 16:33 6.48430 96.55510 40888 ft 467 kts 106°
2026-05-07 16:33 6.46642 96.61789 40879 ft 467 kts 106°
2026-05-07 16:34 6.44836 96.68063 40881 ft 467 kts 106°
2026-05-07 16:34 6.43004 96.74335 40882 ft 468 kts 106°
2026-05-07 16:35 6.41160 96.80613 40879 ft 468 kts 106°
2026-05-07 16:35 6.39327 96.86850 40879 ft 468 kts 106°
2026-05-07 16:36 6.37482 96.93129 40881 ft 468 kts 106°
2026-05-07 16:36 6.35638 96.99404 40877 ft 468 kts 106°
2026-05-07 16:37 6.33788 97.05696 40880 ft 468 kts 106°
2026-05-07 16:37 6.31941 97.11976 40874 ft 468 kts 106°
2026-05-07 16:38 6.30094 97.18251 40880 ft 468 kts 106°
2026-05-07 16:38 6.28247 97.24523 40875 ft 468 kts 106°
2026-05-07 16:39 6.26399 97.30798 40876 ft 467 kts 106°
2026-05-07 16:39 6.24552 97.37064 40875 ft 467 kts 106°
2026-05-07 16:40 6.22717 97.43287 40875 ft 468 kts 106°
2026-05-07 16:40 6.20869 97.49556 40870 ft 468 kts 106°
2026-05-07 16:41 6.18884 97.55775 40874 ft 468 kts 113°
2026-05-07 16:41 6.15703 97.61477 40881 ft 469 kts 124°
2026-05-07 16:42 6.11534 97.66523 40884 ft 469 kts 130°
2026-05-07 16:42 6.07201 97.71440 40875 ft 469 kts 130°
2026-05-07 16:43 6.02916 97.76333 40874 ft 469 kts 129°
2026-05-07 16:43 5.98635 97.81275 40880 ft 468 kts 129°
2026-05-07 16:44 5.94371 97.86218 40879 ft 468 kts 129°
2026-05-07 16:44 5.90108 97.91162 40878 ft 468 kts 129°
2026-05-07 16:45 5.85838 97.96110 40876 ft 468 kts 129°
2026-05-07 16:45 5.81571 98.01052 40882 ft 468 kts 129°
2026-05-07 16:46 5.77322 98.05971 40881 ft 469 kts 129°
2026-05-07 16:46 5.73049 98.10918 40879 ft 469 kts 129°
2026-05-07 16:47 5.68774 98.15864 40880 ft 469 kts 129°
2026-05-07 16:47 5.64495 98.20815 40875 ft 469 kts 129°
2026-05-07 16:48 5.60222 98.25758 40885 ft 469 kts 129°
2026-05-07 16:48 5.55946 98.30703 40882 ft 469 kts 129°
2026-05-07 16:49 5.51667 98.35650 40879 ft 469 kts 129°
2026-05-07 16:49 5.47417 98.40562 40875 ft 469 kts 129°
2026-05-07 16:50 5.43140 98.45505 40881 ft 469 kts 129°
2026-05-07 16:50 5.38869 98.50439 40879 ft 469 kts 129°
2026-05-07 16:51 5.34594 98.55377 40877 ft 469 kts 129°
2026-05-07 16:51 5.30314 98.60319 40874 ft 469 kts 129°
2026-05-07 16:52 5.26026 98.65270 40878 ft 469 kts 129°
2026-05-07 16:52 5.21741 98.70215 40879 ft 469 kts 129°
2026-05-07 16:53 5.17458 98.75158 40877 ft 469 kts 129°
2026-05-07 16:53 5.13203 98.80067 40875 ft 469 kts 129°
2026-05-07 16:54 5.08918 98.85009 40882 ft 469 kts 129°
2026-05-07 16:54 5.04635 98.89948 40878 ft 469 kts 129°
2026-05-07 16:55 5.00346 98.94894 40884 ft 469 kts 129°
2026-05-07 16:55 4.96056 98.99839 40881 ft 469 kts 130°
2026-05-07 16:56 4.91770 99.04779 40875 ft 469 kts 130°
2026-05-07 16:56 4.85338 99.12189 40883 ft 470 kts 130°
2026-05-07 16:57 4.81048 99.17130 40882 ft 470 kts 130°
2026-05-07 16:57 4.76783 99.22043 40881 ft 470 kts 130°
2026-05-07 16:58 4.72454 99.27026 40884 ft 470 kts 130°
2026-05-07 16:58 4.68188 99.31938 40885 ft 470 kts 130°
2026-05-07 16:59 4.63888 99.36888 40883 ft 470 kts 130°
2026-05-07 16:59 4.59580 99.41846 40878 ft 470 kts 130°
2026-05-07 17:00 4.55282 99.46792 40879 ft 470 kts 130°
2026-05-07 17:00 4.51713 99.50898 40885 ft 470 kts 130°
2026-05-07 17:01 4.46560 99.56510 40890 ft 470 kts 133°
2026-05-07 17:01 4.41961 99.61175 40886 ft 471 kts 134°
2026-05-07 17:02 4.38119 99.65059 40884 ft 471 kts 133°
2026-05-07 17:02 4.33524 99.69735 40881 ft 471 kts 133°
2026-05-07 17:03 4.28933 99.74426 40879 ft 471 kts 133°
2026-05-07 17:03 4.24346 99.79117 40881 ft 471 kts 133°
2026-05-07 17:04 4.19757 99.83808 40876 ft 472 kts 133°
2026-05-07 17:04 4.15162 99.88503 40879 ft 472 kts 133°
2026-05-07 17:05 4.10566 99.93198 40877 ft 472 kts 133°
2026-05-07 17:05 4.05969 99.97893 40856 ft 472 kts 133°
2026-05-07 17:06 4.03683 100.00228 40368 ft 477 kts 133°
2026-05-07 17:06 4.01371 100.02589 39809 ft 476 kts 133°
2026-05-07 17:06 3.99039 100.04970 39172 ft 475 kts 133°
2026-05-07 17:06 3.96726 100.07331 38515 ft 476 kts 133°
2026-05-07 17:07 3.94401 100.09704 37722 ft 476 kts 133°
2026-05-07 17:07 3.92077 100.12077 36994 ft 476 kts 133°
2026-05-07 17:07 3.89759 100.14444 36257 ft 477 kts 133°
2026-05-07 17:07 3.87433 100.16817 35502 ft 478 kts 133°
2026-05-07 17:08 3.85098 100.19202 34647 ft 482 kts 134°
2026-05-07 17:08 3.82739 100.21609 33714 ft 486 kts 134°
2026-05-07 17:08 3.80355 100.24042 32656 ft 491 kts 134°
2026-05-07 17:08 3.77953 100.26492 31638 ft 494 kts 134°
2026-05-07 17:09 3.75538 100.28956 30580 ft 498 kts 134°
2026-05-07 17:09 3.73115 100.31427 29795 ft 495 kts 134°
2026-05-07 17:09 3.70711 100.33878 28884 ft 490 kts 134°
2026-05-07 17:09 3.68336 100.36300 28057 ft 484 kts 134°
2026-05-07 17:10 3.66025 100.38657 27292 ft 478 kts 133°
2026-05-07 17:10 3.63701 100.41027 26531 ft 473 kts 133°
2026-05-07 17:10 3.61407 100.43366 25772 ft 468 kts 133°
2026-05-07 17:10 3.59141 100.45678 25012 ft 463 kts 133°
2026-05-07 17:11 3.56892 100.47971 24264 ft 459 kts 133°
2026-05-07 17:11 3.54661 100.50247 23510 ft 456 kts 133°
2026-05-07 17:11 3.52448 100.52503 22663 ft 452 kts 133°
2026-05-07 17:11 3.50256 100.54738 21892 ft 447 kts 133°
2026-05-07 17:12 3.48104 100.56911 21611 ft 431 kts 133°
2026-05-07 17:12 3.46006 100.59004 21324 ft 422 kts 134°
2026-05-07 17:12 3.43919 100.61080 21065 ft 425 kts 134°
2026-05-07 17:12 3.41814 100.63174 20802 ft 428 kts 134°
2026-05-07 17:13 3.39705 100.65274 20540 ft 426 kts 134°
2026-05-07 17:13 3.37612 100.67359 20274 ft 422 kts 133°
2026-05-07 17:13 3.35540 100.69425 20010 ft 419 kts 133°
2026-05-07 17:13 3.33483 100.71477 19749 ft 417 kts 133°
2026-05-07 17:14 3.31430 100.73524 19490 ft 415 kts 133°
2026-05-07 17:14 3.29389 100.75561 19233 ft 414 kts 133°
2026-05-07 17:14 3.27350 100.77596 18979 ft 413 kts 133°
2026-05-07 17:14 3.25318 100.79623 18721 ft 412 kts 133°
2026-05-07 17:15 3.23295 100.81642 18465 ft 411 kts 133°
2026-05-07 17:15 3.21270 100.83662 18193 ft 410 kts 133°
2026-05-07 17:15 3.19258 100.85670 17909 ft 408 kts 133°
2026-05-07 17:15 3.17253 100.87670 17638 ft 406 kts 133°
2026-05-07 17:16 3.15256 100.89661 17383 ft 404 kts 133°
2026-05-07 17:16 3.13271 100.91641 17121 ft 402 kts 133°
2026-05-07 17:16 3.11293 100.93614 16868 ft 401 kts 133°
2026-05-07 17:16 3.09346 100.95556 16620 ft 399 kts 133°
2026-05-07 17:17 3.07383 100.97513 16372 ft 398 kts 133°
2026-05-07 17:17 3.05420 100.99471 16115 ft 397 kts 133°
2026-05-07 17:17 3.03462 101.01423 15866 ft 396 kts 133°
2026-05-07 17:17 3.01513 101.03366 15628 ft 395 kts 133°
2026-05-07 17:18 2.99572 101.05301 15377 ft 394 kts 133°
2026-05-07 17:18 2.97633 101.07235 15129 ft 392 kts 133°
2026-05-07 17:18 2.95701 101.09161 14885 ft 391 kts 133°
2026-05-07 17:18 2.93775 101.11081 14647 ft 390 kts 133°
2026-05-07 17:19 2.91859 101.12991 14401 ft 389 kts 133°
2026-05-07 17:19 2.89944 101.14900 14158 ft 387 kts 133°
2026-05-07 17:19 2.88064 101.16774 13914 ft 386 kts 133°
2026-05-07 17:19 2.86142 101.18690 13672 ft 385 kts 133°
2026-05-07 17:20 2.84248 101.20578 13406 ft 384 kts 134°
2026-05-07 17:20 2.82389 101.22431 13151 ft 382 kts 133°
2026-05-07 17:20 2.81966 101.22857 13096 ft 381 kts 133°
2026-05-07 17:21 2.80196 101.24899 12841 ft 379 kts 126°
2026-05-07 17:21 2.78708 101.27077 12604 ft 377 kts 121°
2026-05-07 17:21 2.77348 101.29316 12373 ft 376 kts 120°
2026-05-07 17:21 2.75995 101.31556 12121 ft 376 kts 120°
2026-05-07 17:22 2.74642 101.33793 11894 ft 376 kts 120°
2026-05-07 17:22 2.73290 101.36019 11705 ft 374 kts 121°
2026-05-07 17:22 2.71934 101.38242 11536 ft 372 kts 121°
2026-05-07 17:22 2.70606 101.40417 11326 ft 372 kts 121°
2026-05-07 17:23 2.69265 101.42608 11119 ft 364 kts 121°
2026-05-07 17:23 2.67967 101.44728 10888 ft 352 kts 121°
2026-05-07 17:23 2.66705 101.46791 10670 ft 341 kts 121°
2026-05-07 17:23 2.65484 101.48785 10444 ft 331 kts 121°
2026-05-07 17:24 2.64296 101.50726 10230 ft 321 kts 121°
2026-05-07 17:24 2.63143 101.52607 10045 ft 312 kts 121°
2026-05-07 17:24 2.61931 101.54357 9941 ft 300 kts 127°
2026-05-07 17:24 2.60626 101.55959 9694 ft 295 kts 129°
2026-05-07 17:25 2.59312 101.57516 9426 ft 290 kts 129°
2026-05-07 17:25 2.58047 101.59018 9206 ft 283 kts 129°
2026-05-07 17:25 2.56797 101.60517 9010 ft 278 kts 129°
2026-05-07 17:25 2.55567 101.62002 8809 ft 276 kts 129°
2026-05-07 17:26 2.54343 101.63487 8620 ft 276 kts 129°
2026-05-07 17:26 2.53121 101.64976 8426 ft 277 kts 129°
2026-05-07 17:26 2.51899 101.66468 8232 ft 277 kts 129°
2026-05-07 17:26 2.50679 101.67958 8043 ft 278 kts 129°
2026-05-07 17:27 2.49457 101.69453 7834 ft 277 kts 129°
2026-05-07 17:27 2.48237 101.70946 7655 ft 277 kts 129°
2026-05-07 17:27 2.47020 101.72437 7445 ft 276 kts 129°
2026-05-07 17:27 2.45803 101.73926 7269 ft 275 kts 129°
2026-05-07 17:28 2.44591 101.75409 7076 ft 274 kts 129°
2026-05-07 17:28 2.43677 101.77001 6641 ft 265 kts 101°
2026-05-07 17:28 2.43823 101.78805 6457 ft 266 kts 69°
2026-05-07 17:28 2.44537 101.80524 6010 ft 272 kts 68°
2026-05-07 17:29 2.45218 101.82253 5655 ft 257 kts 69°
2026-05-07 17:29 2.45848 101.83879 5390 ft 249 kts 69°
2026-05-07 17:29 2.46472 101.85494 5108 ft 247 kts 69°
2026-05-07 17:29 2.47091 101.87091 4853 ft 246 kts 69°
2026-05-07 17:30 2.47920 101.88538 4594 ft 237 kts 40°
2026-05-07 17:30 2.49379 101.89140 4535 ft 229 kts 359°
2026-05-07 17:30 2.50833 101.88623 4503 ft 223 kts 321°
2026-05-07 17:30 2.52047 101.87639 4513 ft 227 kts 322°
2026-05-07 17:31 2.53328 101.86710 4501 ft 228 kts 325°
2026-05-07 17:31 2.54632 101.85815 4488 ft 226 kts 326°
2026-05-07 17:31 2.55915 101.84948 4289 ft 222 kts 326°
2026-05-07 17:31 2.57178 101.84096 4034 ft 221 kts 326°
2026-05-07 17:32 2.58446 101.83243 3768 ft 219 kts 326°
2026-05-07 17:32 2.59714 101.82388 3478 ft 219 kts 326°
2026-05-07 17:32 2.60981 101.81535 3199 ft 218 kts 326°
2026-05-07 17:32 2.61828 101.80964 3003 ft 218 kts 326°
2026-05-07 17:33 2.63467 101.79861 2638 ft 208 kts 327°
2026-05-07 17:33 2.64633 101.79075 2375 ft 196 kts 327°
2026-05-07 17:33 2.65739 101.78327 2148 ft 184 kts 327°
2026-05-07 17:33 2.66764 101.77639 1914 ft 173 kts 327°
2026-05-07 17:34 2.67750 101.76976 1675 ft 166 kts 327°
2026-05-07 17:34 2.68658 101.76363 1478 ft 151 kts 327°
2026-05-07 17:34 2.69491 101.75800 1318 ft 142 kts 327°
2026-05-07 17:34 2.70323 101.75241 1125 ft 143 kts 327°
2026-05-07 17:35 2.71139 101.74693 937 ft 139 kts 327°
2026-05-07 17:35 2.71953 101.74144 813 ft 150 kts 327°
2026-05-07 17:35 2.72842 101.73541 637 ft 158 kts 327°
2026-05-07 17:35 2.73726 101.72953 667 ft 153 kts 327°
2026-05-07 17:36 2.74647 101.72335 803 ft 164 kts 327°
2026-05-07 17:36 2.75624 101.71674 1091 ft 173 kts 327°
2026-05-07 17:36 2.76674 101.71027 1307 ft 182 kts 341°
2026-05-07 17:36 2.77923 101.71005 1575 ft 183 kts 22°
2026-05-07 17:37 2.78922 101.71792 1616 ft 188 kts 62°
2026-05-07 17:37 2.79199 101.73064 1680 ft 194 kts 99°
2026-05-07 17:37 2.78631 101.74298 1750 ft 200 kts 128°
2026-05-07 17:37 2.77675 101.75355 1827 ft 210 kts 133°
2026-05-07 17:38 2.76633 101.76431 1924 ft 220 kts 134°
2026-05-07 17:38 2.75549 101.77540 2116 ft 224 kts 134°
2026-05-07 17:38 2.74468 101.78642 2496 ft 219 kts 134°
2026-05-07 17:38 2.73371 101.79674 2741 ft 219 kts 142°
2026-05-07 17:39 2.72102 101.80542 2983 ft 220 kts 148°
2026-05-07 17:39 2.70693 101.80996 3345 ft 210 kts 180°
2026-05-07 17:39 2.69318 101.80615 3448 ft 206 kts 214°
2026-05-07 17:39 2.68459 101.79568 3430 ft 197 kts 250°
2026-05-07 17:40 2.68188 101.78279 3403 ft 181 kts 265°
2026-05-07 17:40 2.68416 101.77108 3057 ft 168 kts 302°
2026-05-07 17:40 2.69175 101.76262 2546 ft 162 kts 317°
2026-05-07 17:40 2.70040 101.75483 1585 ft 174 kts 321°
2026-05-07 17:41 2.71002 101.74775 912 ft 161 kts 327°
2026-05-07 17:41 2.71859 101.74205 776 ft 142 kts 327°
2026-05-07 17:41 2.72678 101.73654 623 ft 139 kts 327°
2026-05-07 17:41 2.73476 101.73117 451 ft 138 kts 328°
2026-05-07 17:42 2.74284 101.72571 262 ft 143 kts 327°
2026-05-07 17:42 2.75116 101.72016 99 ft 142 kts 328°
2026-05-07 17:42 2.75844 101.71533 70 ft 107 kts 327°
2026-05-07 17:42 2.76337 101.71201 72 ft 67 kts 326°
2026-05-07 17:43 2.76544 101.70990 64 ft 32 kts 303°
2026-05-07 17:43 2.76581 101.70900 65 ft 13 kts 275°
2026-05-07 17:43 2.76525 101.70852 65 ft 12 kts 166°
2026-05-07 17:43 2.76449 101.70896 62 ft 13 kts 146°
2026-05-07 17:44 2.76374 101.70946 63 ft 14 kts 146°
2026-05-07 17:44 2.76272 101.71015 62 ft 21 kts 146°
2026-05-07 17:44 2.76131 101.71109 67 ft 27 kts 146°
2026-05-07 17:44 2.75975 101.71214 67 ft 27 kts 146°
2026-05-07 17:45 2.75820 101.71317 71 ft 27 kts 146°
2026-05-07 17:45 2.75664 101.71422 68 ft 27 kts 146°
2026-05-07 17:45 2.75508 101.71526 68 ft 27 kts 146°
2026-05-07 17:45 2.75352 101.71631 68 ft 27 kts 146°
2026-05-07 17:46 2.75219 101.71689 69 ft 19 kts 203°
2026-05-07 17:46 2.75138 101.71597 76 ft 16 kts 236°
2026-05-07 17:46 2.75080 101.71511 70 ft 14 kts 236°
2026-05-07 17:46 2.75028 101.71494 73 ft 8 kts 155°
2026-05-07 17:47 2.75003 101.71508 69 ft 2 kts 145°
2026-05-07 17:47 2.74994 101.71514 69 ft 2 kts 146°
2026-05-07 17:47 2.74991 101.71516 70 ft 0 kts 146°
2026-05-07 17:50 2.75004 101.71508 69 ft 10 kts 146°
2026-05-07 17:51 2.75025 101.71493 66 ft 0 kts 146°
2026-05-07 17:51 19.08398 72.99443 2208 ft 250 kts 292°
2026-05-07 17:52 19.08982 72.95140 1361 ft 145 kts 274°
2026-05-07 17:52 19.08932 72.91118 704 ft 142 kts 272°